GW2943 Weather Reports


time (UTC)temp
C
wind
direction
speed
KPH
gust
KPH
rain 1hr
cm
rain 24hr
cm
rain mn
cm
humidity
%
barometer
mb
20260503200047 14 305 6.4 22.5 0.00 0.00 0.00 31 1003.4
20260503194548 13 296 8.0 22.5 0.00 0.00 0.00 31 1003.5
20260503193049 13 355 8.0 19.3 0.00 0.00 0.00 31 1003.6
20260503191542 12 340 4.8 22.5 0.00 0.00 0.00 33 1003.7
20260503190040 13 288 8.0 29.0 0.00 0.00 0.00 28 1003.7
20260503184544 13 286 8.0 27.4 0.00 0.00 0.00 35 1003.8
20260503183042 13 317 9.7 27.4 0.00 0.00 0.00 35 1003.8
20260503181613 13 348 4.8 20.9 0.00 0.00 0.00 36 1003.8
20260503180040 13 267 6.4 24.1 0.00 0.00 0.00 36 1003.9
20260503174533 13 360 9.7 27.4 0.00 0.00 0.00 35 1004.1
20260503173045 13 323 8.0 20.9 0.00 0.00 0.00 37 1004.3
20260503171527 12 324 12.9 27.4 0.00 0.00 0.00 38 1004.5
20260503081516 2 136 0.0 0.0 0.00 0.00 0.00 76 1006.8
20260503071613 4 123 0.0 0.0 0.00 0.00 0.00 63 1007.1
20260503070104 5 123 0.0 0.0 0.00 0.00 0.00 59 1007.2
20260503060112 6 123 3.2 4.8 0.00 0.00 0.00 57 1007.8
20260503054547 6 121 1.6 3.2 0.00 0.00 0.00 53 1008.0
20260503053047 6 149 3.2 4.8 0.00 0.00 0.00 54 1008.2
20260503051543 6 149 0.0 1.6 0.00 0.00 0.00 54 1008.3
20260503050043 6 149 3.2 4.8 0.00 0.00 0.00 52 1008.4
20260503044607 6 149 0.0 0.0 0.00 0.00 0.00 52 1008.5
20260503043039 6 149 3.2 8.0 0.00 0.00 0.00 51 1008.5
20260503041540 6 143 3.2 9.7 0.00 0.00 0.00 50 1008.5
20260503040038 6 148 8.0 14.5 0.00 0.00 0.00 50 1008.7
20260503034535 7 106 3.2 6.4 0.00 0.00 0.00 50 1009.0
20260503033038 7 153 8.0 12.9 0.00 0.00 0.00 48 1009.2
20260503031533 7 146 6.4 11.3 0.00 0.00 0.00 49 1009.6
20260503030037 7 110 1.6 6.4 0.00 0.00 0.00 46 1009.7
20260503024532 7 123 1.6 4.8 0.00 0.00 0.00 47 1009.7
20260503023040 7 141 3.2 11.3 0.00 0.00 0.00 46 1009.6
20260503021530 8 144 8.0 17.7 0.00 0.00 0.00 45 1009.6
20260503020035 8 156 3.2 14.5 0.00 0.00 0.00 46 1009.7
20260503014529 9 172 6.4 16.1 0.00 0.00 0.00 46 1009.4
20260503013029 10 148 9.7 17.7 0.00 0.00 0.00 45 1009.5
20260503011532 10 119 11.3 19.3 0.00 0.00 0.00 45 1009.4
20260503010027 11 159 6.4 14.5 0.00 0.00 0.00 44 1009.6
20260503004527 11 157 9.7 17.7 0.00 0.00 0.00 43 1009.7
20260503003032 11 160 6.4 16.1 0.00 0.00 0.00 43 1009.9
20260503001524 12 163 8.0 16.1 0.00 0.00 0.00 42 1010.0
20260503000029 12 139 16.1 20.9 0.00 0.00 0.00 41 1010.2
20260502234542 12 338 3.2 4.8 0.00 0.00 0.00 40 1010.2
20260502233021 12 304 1.6 4.8 0.00 0.00 0.00 40 1010.5
20260502231526 12 239 3.2 11.3 0.00 0.00 0.00 41 1010.6
20260502230022 12 240 3.2 11.3 0.00 0.00 0.00 41 1010.8
20260502224518 13 192 1.6 6.4 0.00 0.00 0.00 36 1010.9
20260502223033 13 278 0.0 4.8 0.00 0.00 0.00 38 1011.0
20260502221512 13 276 1.6 11.3 0.00 0.00 0.00 41 1011.2
20260502220012 13 291 3.2 6.4 0.00 0.00 0.00 36 1011.3
20260502214509 13 263 4.8 16.1 0.00 0.00 0.00 34 1011.4
20260502213006 13 259 9.7 19.3 0.00 0.00 0.00 35 1011.7
20260502211503 13 254 6.4 17.7 0.00 0.00 0.00 36 1011.9
20260502210001 13 275 8.0 19.3 0.00 0.00 0.00 34 1012.2
20260502204600 13 304 9.7 19.3 0.00 0.00 0.00 32 1012.2
20260502203114 13 265 11.3 20.9 0.00 0.00 0.00 31 1012.5
20260502201553 12 286 4.8 17.7 0.00 0.00 0.00 35 1012.9